CZ-6A DEB, 61299

Orbit data source: Space-Track

CZ-6A DEB, 61299 is space debris in LEO originally from a launch on Tue, 06 Aug 2024 UTC launched from the Taiyaun Space Center, China (TSC). Debris objects in space refer to the collection of defunct objects orbiting the Earth. Examples of debris include non-operational satellites, rocket bodies, and fragments generated from explosions, collisions, or faulty payload assembly.

Loading next visibility...
Identifier
61299, 2024-140TL
Orbit
LEO
Country
Flag of CNCN / PRC
Related business
Manufacturer
SAST
Mission
Spacecraft
Bus & Motor
Unknown
Mass
Unknown
Launch date (UTC)
2024-08-06 (2 years ago)
Launch vehicle
Unknown
Launch site
Taiyaun Space Center, China (TSC)
Object type
Payload
Rocket body
Debris
Shape & HBR
Unknown shape, 0.1 m
Radar Cross Section
Small (<0.1 m²)

Expand to show TLE details & history
Last TLE update: 16 hours ago

TLE from 16 hours ago
0 CZ-6A DEB
1 61299U 24140TL  26118.42699328  .00002597  00000-0  10287-2 0  9992
2 61299  88.9841 278.6774 0024910 353.4158   6.6706 14.28472157 86711
Epoch: 2026-04-28T10:14Z
TLE epoch observation values (Epoch: 2026-04-28T10:14:52.219Z)
Latitude
0.00002°
Longitude
-91.44264°
Altitude
782.152 km
Speed
7.472 km/s
True Right ascension
18h 34m 42s
True Declination
0° 00' 00"
Sunlit
Object was in daylight at epoch
Visualization orbit readout
Latitude
Unknown
Longitude
Unknown
Altitude
Unknown
Speed
Unknown
Apparent Right ascension
Unknown
Apparent Declination
Unknown
Sunlit
N/A
Visualization observer readout
Local Sidereal Time
10:07:33
Azimuth
Unknown
Elevation
Unknown
Doppler factor
Unknown
Orbital elements
Apogee altitude
811.647 km
Perigee altitude
775.916 km
Semi-major axis
7,171.918 km
Eccentricity
0.00249
Inclination
88.9841°
RAAN
278.6774°
Arg. of periapsis
353.4158°
True anomaly
6.70386°
Mean anomaly
6.6706°
Eccentric anomaly
6.68722°
Mean motion
3.57347 °/min
Orbital period
100.74 mins
BSTAR
0.0010287
Loading maneuver chart data...
Computing Atmospheric mass density...
Loading historical data...
Loading historical data...
Loading historical data...
Loading historical data...
Loading historical data...
Loading historical data...
Loading historical data...

Documentation

Showing up to 5 results
|